Showing default

KINEIS-4A, 63303

Orbit data source: Space-Track

KINEIS-4A, 63303 is a payload satellite in SSO that was launched on Tue, 18 Mar 2025 UTC via an ELECTRON launch vehicle from the Rocket Lab Launch Complex (RLLC). Payload-class satellites include a variety of spacecraft equipped with specific instruments for various scientific and technological missions. These include communications satellites like Starlink; space stations such as the ISS; scientific satellites like the Hubble; Earth observation satellites from companies like Planet Labs, Umbra, and HawkEye 360; GPS; miniature CubeSats for education and research; and military/defense satellites.

Loading next visibility...
Identifier
63303, 2025-056D
Orbit
SSO
Last TLE update
7 hours ago
Origin
Manufacturer
KINEIS
Mission
Operational Commercial Communications
Bus & Motor
CUBESAT 16U, Unknown motor
Mass
28 kg wet, 28 kg dry
Launch date (UTC)
2025-03-18 (2 months ago)
Launch vehicle
ELECTRON
Launch site
Rocket Lab Launch Complex (RLLC)
Object type
Payload
Rocket body
Debris
Shape & HBR
Box + 2 Pan + 1 Ant, 1.6 m
Radar Cross Section
0.229 m², Medium (>0.1 m² and < 1m²)

Expand to show TLE details & history

TLE from 7 hours ago
0 KINEIS-4A
1 63303U 25056D   25140.41740556  .00001973  00000-0  32030-3 0  9998
2 63303  97.9785 266.6855 0004023 108.9316 251.2328 14.72251863  9334
Epoch: 2025-05-20T10:01Z
TLE epoch observation values (Epoch: 2025-05-20T10:01:03.84Z)
Latitude
Longitude
-121.89647°
Altitude
657.808 km
Speed
7.528 km/s
True Right ascension
17h 46m 44s
True Declination
0° 00' 00"
Sunlit
Object was in full shadow at epoch
Visualization orbit readout
Latitude
4.69696°
Longitude
59.05894°
Altitude
655.309 km
Speed
7.531 km/s
Apparent Right ascension
08h 45m 46s
Apparent Declination
-31° 23' 12"
Sunlit
Object is in daylight
Visualization observer readout
Local Sidereal Time
02:14:05
Azimuth
110.966° ESE
Elevation
-25.112°
Doppler factor
1
Orbital elements
Apogee altitude
653.771 km
Perigee altitude
648.115 km
Semi-major axis
7,029.08 km
Eccentricity
0.0004
Inclination
97.9785°
RAAN
266.6855°
Arg. of periapsis
108.9316°
True anomaly
Unknown
Mean anomaly
251.2328°
Eccentric anomaly
Unknown
Mean motion
3.68295 °/min
Orbital period
97.75 mins
BSTAR
0.0003203
Loading maneuver chart data...
Loading SW <> Apogee altitude chart data...
Loading historical data...
Loading historical data...
Loading historical data...
Loading historical data...
Loading historical data...
Loading historical data...
Loading historical data...

KINEIS-4A Visibility forecast

Observer location: undefined°, undefined°

Span
Click to sort rows by Start time (UTC) header in descending order
Start Az.
Max El. time (UTC)
Max El. Az.
Max El.
End time (UTC)
End Az.
7 mins2025-05-20 20:23:06.082Z42.063° NE2025-05-20 20:27:06.082Z104.592° ESE21.102°2025-05-20 20:30:06.082Z147.127° SSE
6 mins2025-05-20 22:01:06.082Z337.539° N2025-05-20 22:03:06.082Z298.394° NW27.096°2025-05-20 22:07:06.082Z230.076° WSW
5 mins2025-05-21 07:23:06.082Z102.552° ESE2025-05-21 07:25:06.082Z70.48° E19.079°2025-05-21 07:28:06.082Z23.98° NE
6 mins2025-05-21 08:59:06.082Z204.596° SW2025-05-21 09:02:06.082Z270.798° WNW30.737°2025-05-21 09:05:06.082Z324.442° NNW
|